Agenzia del porto Bunker Vibo
  Sponsor: BRUNSWICK MARINE IN ITALIA 

OBSERVATIONS
LATEST DOWNLOAD: 2018/12/15 07:41:03

STATION LIBD/162700
Saturday, 15 December 2018, 06:20 UTC

pressure 1011 hPa
temperature 7 °C
dewpoint 5 °C
humidity 87.1%
wind WNW-10 knots
visibility Fair
sky Broken clouds
weather -

MAIN LOCATIONS

HOURLY DATA

HOTEL RESERVATION

WEATHER REPORT WEATHER REPORT

METEOMAR METEOMAR

WEATHER CHARTS WEATHER CHARTS

WEBCAM WEBCAM



 BARI
COUNTRY
ITALY
     LAT
41.13 N
    LON
16.78 E
    ELEV
44 m
     REGION
Puglia
     PROVINCE
Bari
     ZONE
Southern

LATEST 24 HOURS ( 48 OBSERVATIONS )
Observation time
UTC
temperature
humidity
%
pressure
hPa
  wind
knots
2018/12/15 06:207 871011WNW-10
2018/12/15 05:507 871011WNW-11
2018/12/15 05:207 931011WNW-10
2018/12/15 04:507 931011WNW-11
2018/12/15 04:207 931011WNW-9
2018/12/15 03:507 931011WNW-10
2018/12/15 03:207 931011WNW-8
2018/12/15 02:507 931011WNW-9
2018/12/15 02:207 931011NW-9
2018/12/15 01:508 871011NW-7
2018/12/15 01:208 871011NW-6
2018/12/15 00:508 871011WNW-6
2018/12/15 00:208 871011NW-5
2018/12/14 23:508 871011WNW-5
2018/12/14 23:208 871011NW-5
2018/12/14 22:509 811012VAR-3
2018/12/14 22:209 811011NW-5
2018/12/14 21:509 811012WNW-6
2018/12/14 21:209 811012W-3
2018/12/14 20:509 811012WNW-6
2018/12/14 20:209 811012WNW-7
2018/12/14 19:509 811011WNW-8
2018/12/14 19:209 871011W-7
2018/12/14 18:509 871011W-6
2018/12/14 17:509 871011WNW-5
2018/12/14 17:209 871011WNW-6
2018/12/14 16:509 871010WNW-8
2018/12/14 16:209 931010WNW-7
2018/12/14 15:509 931010NW-5
2018/12/14 15:2010 871010NW-5
2018/12/14 14:5010 871010NW-6
2018/12/14 14:2011 871010NNW-6
2018/12/14 13:5011 871009NNW-5
2018/12/14 13:2010 931009NNW-6
2018/12/14 12:5010 931009NNW-6
2018/12/14 12:2010 931009N-6
2018/12/14 11:5011 931009NNW-5
2018/12/14 11:2011 931009NNW-5
2018/12/14 10:5011 871009NNW-7
2018/12/14 10:2011 871009NW-8
2018/12/14 09:5011 931009NNW-6
2018/12/14 09:2011 931010NNW-5
2018/12/14 08:5011 931010N-4
2018/12/14 08:2012 931009VAR-1
2018/12/14 07:5010 931010VAR-2
2018/12/14 07:2010 931010VAR-3
2018/12/14 06:5010 931009VAR-3
2018/12/14 06:2010 931009VAR-1
( Previous data )

ARCHIVE   LOCAL FORECASTS   CLIMATE AVERAGES